Regional Weather Roundup
Issued by NWS

Home | Current Version | Previous Version | Text Only | Print | Product List | Glossary Off
Versions: 1 2 3 4 5 6 7 8 9 10 11 12 13 14 15 16 17 18 19 20 21 22 23 24 25 26 27 28 29 30 31 32 33 34 35 36 37 38 39 40 41 42 43 44 45 46 47 48 49 50

000
ASUS43 KOAX 101902
RWRNE

WEATHER ROUNDUP FOR NEBRASKA
NATIONAL WEATHER SERVICE OMAHA NE
100 PM CST SUN DEC 10 2017

NOTES: SATELLITE DATA IS BEING USED TO AUGMENT CLOUD COVER ABOVE
       12000 FEET.
       "FAIR" INDICATES FEW OR NO CLOUDS BELOW 12,000 FEET WITH NO
       SIGNIFICANT WEATHER AND/OR OBSTRUCTIONS TO VISIBILITY.


NEZ001>004-019>022-054>056-102000-
NEBRASKA PANHANDLE

CITY           SKY/WX    TMP DP  RH WIND       PRES   REMARKS
SCOTTSBLUFF    SUNNY     58   6  12 W17G24    30.33F
ALLIANCE       SUNNY     60   4  10 NW16G32   30.27F
CHADRON        SUNNY     58   8  13 W18G29    30.26F
GORDON         FAIR      51  16  25 W15G22    30.23F
KIMBALL        SUNNY     57   4  12 NW16G25   30.35F
SIDNEY         SUNNY     59   2  10 NW20      30.33F
$$

NEZ057>060-069>072-079>082-102000-
SOUTHWEST NEBRASKA

CITY           SKY/WX    TMP DP  RH WIND       PRES   REMARKS
NORTH PLATTE   SUNNY     60  14  16 W15       30.23F
IMPERIAL       SUNNY     61   5  10 NW20      30.30F
LEXINGTON      SUNNY     61  13  15 W15       30.21F
MCCOOK         SUNNY     62  13  14 W21       30.26F
OGALLALA       SUNNY     59   8  13 NW23G31   30.28F
$$

NEZ005>010-023>029-035>040-094-102000-
NORTH CENTRAL NEBRASKA

CITY           SKY/WX    TMP DP  RH WIND       PRES   REMARKS
VALENTINE      SUNNY     59  13  16 W22G30    30.17F
AINSWORTH      SUNNY     57  15  19 NW21G30   30.16F
BROKEN BOW     SUNNY     61  13  15 NW18G28   30.17F
O`NEILL        SUNNY     54  20  26 NW14      30.13F
ORD            SUNNY     61  10  13 NW24G32   30.13F
THEDFORD       MOSUNNY   60  16  18 NW12G23   30.20F
$$

NEZ041-046>049-061>064-073>077-083>087-102000-
SOUTH CENTRAL NEBRASKA

CITY           SKY/WX    TMP DP  RH WIND       PRES   REMARKS
GRAND ISLAND   SUNNY     60  16  18 NW15      30.15F
AURORA         SUNNY     59  17  19 NW18      30.15F
HASTINGS       SUNNY     61  13  15 NW15      30.17F
HOLDREGE       SUNNY     60  19  19 NW13G25   30.20F
YORK           SUNNY     57  18  21 NW17G24   30.14F
$$

NEZ011>018-030>034-042>045-102000-
NORTHEAST NEBRASKA

CITY           SKY/WX    TMP DP  RH WIND       PRES   REMARKS
NORFOLK        SUNNY     52  21  29 NW17      30.08F
ALBION         SUNNY     56  18  23 NW16G23   30.12F
BLAIR          SUNNY     50  28  42 NW15G21   30.09S
COLUMBUS       SUNNY     54  21  27 NW21      30.12
FREMONT        SUNNY     53  25  33 NW16      30.11S
TEKAMAH        SUNNY     51  26  37 NW20      30.09F
WAYNE          SUNNY     50  20  31 NW16G23   30.09F
$$

NEZ050>053-065>068-078-088>093-102000-
SOUTHEAST NEBRASKA

CITY           SKY/WX    TMP DP  RH WIND       PRES   REMARKS
LINCOLN        SUNNY     56  20  24 NW16      30.13F
OMAHA EPPLEY   MOSUNNY   51  26  37 NW16      30.09F
BEATRICE       SUNNY     58  22  24 NW18      30.13F
FALLS CITY     SUNNY     53  24  32 W16       30.11S
NEBRASKA CITY  SUNNY     52  26  37 NW17G24   30.11S
PLATTSMOUTH    SUNNY     51  26  38 W14G21    30.09F
$$

NEZ044-045-051>053-067-102000-
OMAHA AREA

CITY           SKY/WX    TMP DP  RH WIND       PRES   REMARKS
OMAHA EPPLEY   MOSUNNY   51  26  37 NW16      30.09F
BLAIR          SUNNY     50  28  42 NW15G21   30.09S
FREMONT        SUNNY     53  25  33 NW16      30.11S
MILLARD        SUNNY     52  28  38 NW10      30.10F
OFFUTT AFB     SUNNY     52  25  35 NW16      30.09S
PLATTSMOUTH    SUNNY     51  26  38 W14G21    30.09F
WAHOO          FAIR      53  22  29 NW13G22   30.10F
$$




USA.gov is the U.S. government's official web portal to all federal, state and local government web resources and services.